sat.trackr.live / text

‹ back to catalog

STARLINK-4165

NORAD 53286 · 2022-086AW

PAYLOAD ACTIVE UNKNOWN

§ Identity

Operator
Country
US
Launch date
2022-07-24
Launch site
AFETR
Launch vehicle
Mass (kg)
RCS (m²)

Purposes: comms

External: N2YO · Heavens-Above · Gunter

§ Orbital elements

Epoch: 2026-05-25T03:27:38.155968Z

Period
95.44 min
Inclination
53.2122°
Eccentricity
0.0001199
Mean motion
15.08838479 rev/d
Perigee alt
538.9 km
Apogee alt
540.6 km
Semi-major
6,917.9 km
B*
-4.0852e-6
RAAN
200.5938°
Arg perigee
91.7256°
Mean anomaly
268.3874°
Rev number
21,273

§ Raw data

STARLINK-41651 53286U 22086AW  26145.14419162 -.00000353  00000+0 -40852-5 0  99942 53286  53.2122 200.5938 0001199  91.7256 268.3874 15.08838479212734

JSON: /api/v1/satellites/53286 · /tle

For live sub-satellite position, see the globe view (requires WebGL).

§ Visibility from observer

Set your observer location to see the next 7 days of passes ≥ 10°. The values pass through the URL so the page stays shareable.

No JS? Fill the form by hand. The geolocation button needs JavaScript.